Погода Усановы

Погода Усановы : погода сейчас, прогноз погоды и архив. Всё, что Вы хотите узнать о погоде Усановы!

Поиск расширенной информации на нашем сайте:

Другие новости

Новости СМИ2

Главная страница сайта

Новости сайта

03.07.2017

Напоминаем, что на нашем специализированном сайте Метеоцентр.Азия вы можете получить высокодетализированные автоматические прогнозы погоды по пунктам России, СНГ и мира в авиационном формате (включающие направление и скорость ветра, видимость, явления погоды, количество и форму облачности, нижнюю и верхнюю границу облачности).

Рекомендуем: Генераторы бензиновые купить генераторы.

Погода Усановы - сегодня

Время (UTC), дата Ветер
(°,м/с) 
Видим.   Явления Облачность Т
(°С)
Тd
(°С)
f(%) Тe
(°С)
Pmin
(гПа)
dP
(гПа)
Po
(мм)
O2
(г/м3)
Тmin Tmax R s Состояние
почвы
12 15.10.18 тихо ()   10 км    8/8 600 м 
[Sc]
-0.3 -0.7 97 -0  1022.7  761  307           
18 15.10.18 тихо ()   10 км    8/8 300 м кучево-дожд. 
[Cb cap]
-3.6 -3.6 100 -4  1024.1  0.3  762  312           
21 15.10.18 тихо ()   10 км    10/10 600 м 
[Sc]
-2.1 -2.1 100 -2  1024.2  0.2  762  310           
00 16.10.18 180 (Ю) 10 км    10/10 600 м 
[Sc]
-1.9 -2.1 99 -1  1024  -0.2  762  310           
03 16.10.18 190 (Ю) 10 км    10/10 600 м 
[Sc]
-1.7 -2.1 97 -1  1024.4  0.4  762  309  -4         
06 16.10.18 180 (Ю) 10 км    9/9 600 м 
[Sc]
+0.3 -1.4 88 +1  1023.2  -1.1  762  307           
09 16.10.18 180 (Ю) 10 км    9/9 300 м кучево-дожд. 
[Cb cap]
+1.3 -1.6 81 +1  1021.6  -1.6  760  305           
12 16.10.18 160 (Ю) 10 км    8/3 600 м верхняя 
[Sc|Ci fib]
-0.6 -2.2 89 1020.5  -1.1  760  307           
18 16.10.18 220 (ЮЗ) 10 км    10/10 600 м 
[Sc]
-1 -2.6 89 -2  1016.3  -2.5  756  306           
21 16.10.18 200 (Ю) 10 км    10/10 600 м 
[Sc]
-1.2 -3.4 85 -2  1013.9  -2.4  755  306           
00 17.10.18 180 (Ю) 10 км    10/10 600 м 
[Sc]
-0.9 -3.5 82 -3  1011  -2.9  752  305           
03 17.10.18 170 (Ю) 10 км  слаб. снег  10/10 600 м 
[Sc]
-1.5 -2.3 94 -2  1008.7  -2.3  751  304      0.6     
09 17.10.18 180 (Ю) 4000 м  слаб. снег  10/0 средняя 
[Ac As]
-0.3 -1.1 94 -2  1003.4  -2.6  747  301           
12 17.10.18 170 (Ю) 4000 м  слаб. снег  10/5 600 м средняя 
[Sc|Ac As]
-0.2 -0.5 98 -2  1001.3  -2  745  301           
15 17.10.18 170 (Ю) 10 км  слаб. снег  10/5 600 м средняя 
[Sc|Ac As]
-0 -0.1 99 -1  999.2  -2.1  744  300    -0     
18 17.10.18 150 (ЮВ) 4000 м  слаб. снег  10/6 600 м средняя 
[Sc|Ac As]
-0 -0 100 -1  997.6  -1.6  743  299           
21 17.10.18 140 (ЮВ) 4000 м  слаб. снег  10/5 600 м средняя 
[Sc|Ac As]
+0.1 +0.1 100 +1  996.8  -0.8  742  299           
00 18.10.18 130 (ЮВ) 10 км  слаб. снег  10/8 600 м средняя 
[Sc|Ac As]
+0.1 +0.1 100 +1  997.2  0.4  742  299           
03 18.10.18 тихо ()   10 км  слаб. снег  10/6 600 м средняя 
[Sc|Ac As]
+0.2 +0.2 100 998.5  1.2  743  299  -0.1    11  равномерный
мокрый или
старый снег
100% 
06 18.10.18 110 (В) 10 км  слаб. снег  10/6 600 м средняя 
[Sc|Ac As]
+0.9 +0.5 97 +2  1000.1  1.7  744  299           
09 18.10.18 060 (СВ) 10 км  слаб. снег  10/0 средняя 
[Ac As]
+1.3 +0.8 96 +2  1001.8  1.6  746  299           
12 18.10.18 040 (СВ) 10 км  слаб. снег  10/0 средняя 
[Ac As]
+0.5 +0.4 99 +1  1003.8  747  300           
15 18.10.18 040 (СВ) 10 км  слаб. снег  10/0 средняя 
[Ac As]
+0.3 +0.3 100 +1  1005.3  1.5  748  301    +1.6     
18 18.10.18 020 (С) 10 км  слаб. снег  10/0 средняя 
[Ac As]
+0.2 +0.2 100 +1  1005.8  0.5  749  301           
21 18.10.18 020 (С) 10 км  слаб. снег  10/0 средняя 
[Ac As]
+0.2 +0.2 100 +1  1006.5  0.7  749  302           
Время (UTC), дата Ветер
(°,м/с) 
Видим.   Явления Облачность Т
(°С)
Тd
(°С)
f(%) Тe
(°С)
Pmin
(гПа)
dP
(гПа)
Po
(мм)
O2
(г/м3)
Тmin Tmax R s Состояние
почвы

Для получения пояснительной информации подведите курсор к названию столбца.

ПОГОДА Усановы - архив

Всё, что Вы хотите узнать о погоде Усановы - удобно и подробно!

Выберите нужную дату (начиная с 1 января 2015* года) и нажмите кнопку "Найти".
Будут отображены архивные сводки погоды по пункту Усановы, начиная с указанной даты.


Отображать данные в формате CSV (для использования в таблицах Excel)


Внимание! Наш архив погоды предназначен исключительно для личного некоммерческого использования в познавательных целях. Если Вам необходимы официальные справки о состоянии погоды (для производственных, юридических, коммерческих и т.п. целей), обращайтесь в органы Росгидромета.

*Примечание: данная дата относится к архиву по метеостанциям СССР (Россия, СНГ, Балтия).
Архив по метеостанциям Зарубежной Европы и Азии (кроме Китая) хранится 10 дней, по другим регионам земного шара (Китай, Африка, Америка, Австралия, Океания) - 1 день.

Усановы - район местоположения метеостанции


Название, широта, долгота, высота метеостанции:
Усановы 59.5°ш. 73.4°д. 82 м над ур. моря [Российская Федерация]

Дополнительная информация

В oтличие oт бoльшинства пoгoдных сайтoв мы публикуем пoдрoбную метеoинфoрмацию в детальнoм прoфессиoнальнoм фoрмате.

Характеристики температуры и влажнoсти вoздуха измеряются на высoте 2 м в тени вдали oт зданий и деревьев.
Скoрoсть ветра измеряется на высoте 10 м (на урoвне рoста челoвека скoрoсть ветра ниже в 1.5-2 раза). Если метеoстанция нахoдится в гoрoде или в лесу, тo скoрoсть ветра занижена на 2-4 м/с пo сравнению с oткрытым местoм. Скoрoсть ветра над акватoриями крупных рек и oзёр, а также на вершинах хoлмoв на 2-5 м/с выше, чем в oбычных услoвиях.
Атмoсфернoе давление в разных тoчках местнoсти мoжет значительнo oтличаться oт давления на метеoстанции, в зависимoсти oт услoвий рельефа (при пoдъёме на 10 м давление пoнижается примернo на 1 мм рт.ст.).